Wind_Speed
10 11 11 10 9 6 5 3 1 2 4 5 6 7 7 7 8 8 8 8 9 9 10 9 9 9 9 10 11 11 11 11 11 11 11 11 11 11 11 10 10 10 10
10 11 11 10 9 7 5 4 2 1 3 4 5 6 6 7 7 8 8 8 9 9 9 9 8 8 8 10 10 10 10 10 10 11 11 11 10 11 11 11 10 11 11
10 11 11 11 9 8 6 5 4 2 2 3 4 5 6 6 7 8 8 8 8 8 8 8 8 8 8 9 10 10 10 10 10 10 11 11 11 11 11 11 11 11 12
10 10 11 11 10 9 7 6 5 4 3 3 3 4 5 6 7 8 8 8 8 7 7 7 7 7 8 9 9 10 10 10 10 10 11 11 11 11 11 12 11 11 12
10 10 11 11 10 9 8 7 6 5 5 4 3 4 5 5 6 6 7 7 7 7 6 7 7 7 7 8 9 9 9 10 10 10 10 11 11 11 10 11 11 12 12
10 10 10 11 10 9 9 8 7 6 5 5 4 4 4 4 5 5 6 6 6 6 6 6 6 7 6 7 7 8 8 9 9 9 10 10 10 10 9 10 10 11 11
9 9 10 10 10 10 9 8 7 7 6 5 5 4 3 3 4 4 4 4 4 5 5 5 6 6 6 7 7 7 8 7 7 8 9 10 10 10 9 10 10 10 11
9 9 9 9 9 9 9 8 8 7 6 5 4 4 3 3 3 3 3 3 3 4 4 4 5 5 5 5 6 7 7 7 7 8 8 9 9 9 9 10 10 10 11
8 8 8 8 8 9 9 8 8 7 7 6 4 4 3 3 3 3 3 2 2 2 2 2 3 3 4 4 5 6 7 7 8 8 8 8 8 9 9 10 10 10 11
7 8 8 8 8 8 8 8 7 7 7 6 5 4 3 3 2 2 2 2 1 1 1 1 2 2 2 3 3 5 6 6 6 6 6 7 7 8 9 10 11 11 11
5 6 7 7 7 7 7 8 7 6 6 6 5 4 3 2 2 1 1 1 1 1 2 2 2 2 3 3 3 4 4 5 5 6 6 7 7 8 9 10 12 12 12
4 5 6 6 6 7 7 7 7 7 6 5 4 4 3 2 2 1 1 1 1 2 2 2 3 3 4 4 4 4 4 4 5 6 7 8 8 10 11 11 12 13 13
3 4 5 5 5 6 6 6 6 6 6 6 5 4 3 2 2 2 2 3 3 3 3 3 3 4 5 6 6 6 6 7 7 7 8 9 9 10 11 11 12 13 13
3 4 4 4 5 5 6 6 6 6 6 5 4 3 3 3 3 4 3 4 4 4 4 5 5 6 6 6 7 8 9 9 10 10 10 11 11 11 12 13 13 14 14
2 3 4 4 4 5 5 6 6 6 5 5 4 4 4 4 4 5 4 4 4 5 5 6 7 7 8 8 8 9 10 10 11 11 12 12 13 13 14 14 15 15 15
2 3 3 4 4 4 5 5 5 6 6 5 5 5 6 6 6 6 6 6 6 6 7 8 8 8 9 9 10 11 11 11 11 12 12 13 13 14 14 15 15 16 16
3 3 4 4 4 4 5 5 6 6 6 6 6 7 7 7 7 7 7 8 8 7 8 8 9 9 10 11 12 12 12 12 13 13 13 14 15 15 16 17 17 18 18
5 5 5 5 5 6 6 6 6 7 7 7 7 7 7 7 7 8 8 8 8 8 8 8 9 10 11 11 12 13 13 13 14 14 15 16 16 17 18 19 19 20 20
7 6 7 7 7 7 7 7 8 8 8 8 8 8 8 8 8 8 9 9 9 9 9 10 10 10 11 12 13 13 14 14 15 16 16 17 18 19 20 21 21 22 22
8 8 8 9 9 9 9 9 9 9 9 9 9 9 9 9 9 10 10 10 10 11 11 11 11 12 13 13 14 14 15 16 17 18 19 20 21 22 23 24 25 25 25
10 10 10 10 10 10 10 11 10 10 10 11 11 11 11 11 11 12 11 12 12 13 13 14 14 15 15 16 17 17 18 19 20 21 22 23 23 24 25 27 28 28 28
12 12 12 12 12 12 12 12 12 12 12 12 12 12 12 13 13 13 14 14 15 15 16 17 17 18 18 19 19 20 20 21 22 24 25 25 26 27 28 29 30 31 31
14 14 14 14 14 14 14 14 14 14 14 14 15 15 15 15 16 16 16 17 18 18 18 19 20 20 21 22 22 23 24 24 25 27 27 28 30 31 31 32 33 33 33
16 16 15 15 15 16 16 16 16 16 16 17 17 17 18 18 18 18 19 20 20 21 22 22 23 23 23 25 26 26 27 28 29 30 31 32 32 33 34 35 35 36 36
17 17 17 16 17 17 18 18 18 18 18 18 19 19 20 20 21 21 21 22 23 24 25 26 26 26 27 28 30 30 31 31 32 33 35 35 35 36 37 37 38 38 39
18 17 17 17 17 18 18 19 19 20 20 21 21 21 22 22 23 23 23 24 25 26 27 28 29 30 31 31 32 34 34 35 35 35 36 37 38 38 38 39 40 41 41
Wind_Direction
17 19 20 19 18 19 22 33 73 195 198 200 203 203 207 208 205 204 208 211 214 215 214 215 220 223 223 223 222 225 228 231 235 237 240 242 243 241 242 245 249 254 252
20 21 23 24 27 30 35 47 66 127 180 192 201 203 204 204 204 204 206 209 212 216 215 215 221 221 224 222 222 223 228 234 237 242 243 244 247 244 245 248 250 256 257
21 24 27 29 34 37 42 51 62 88 144 170 184 193 200 203 201 200 204 209 210 214 218 216 221 222 229 224 223 227 232 236 240 244 246 246 250 253 255 255 254 257 258
21 27 31 33 37 41 47 54 64 78 102 138 165 186 197 198 199 201 202 203 205 212 219 221 221 224 225 223 225 231 236 239 244 249 250 250 251 254 259 261 261 263 263
24 29 34 37 41 44 52 59 66 74 86 102 126 159 180 187 189 193 194 198 204 210 216 218 220 219 225 226 229 234 239 241 242 247 250 252 254 254 259 263 265 266 266
26 30 37 41 43 48 54 61 66 72 85 98 108 118 133 153 168 182 189 196 205 213 223 226 226 225 230 236 240 241 243 246 245 248 250 253 253 254 261 267 271 272 271
28 32 38 43 45 50 54 58 64 68 74 86 97 108 125 140 150 163 178 188 198 211 227 240 233 229 236 242 247 244 243 249 247 248 251 254 253 258 262 267 273 279 280
29 32 36 43 47 50 55 55 57 62 64 72 84 103 120 133 137 148 164 182 193 208 224 236 227 233 238 243 251 248 246 251 254 256 261 259 255 256 262 267 274 282 285
33 34 37 42 48 50 53 53 54 55 55 59 71 93 108 121 131 143 152 160 177 197 223 227 228 235 243 250 260 256 251 257 262 264 268 267 266 265 269 273 278 283 286
35 39 40 43 49 50 49 51 51 49 50 56 64 78 96 115 135 133 137 138 145 193 232 223 230 245 262 264 269 267 258 261 265 267 265 266 270 274 279 282 280 283 284
36 39 39 41 45 45 44 45 44 44 45 48 54 61 78 97 106 123 151 170 217 248 262 253 244 260 271 270 274 277 274 271 272 270 269 271 276 280 284 287 285 282 283
26 27 32 36 37 37 38 39 40 40 39 41 40 48 65 72 69 45 316 289 276 266 272 274 270 271 274 273 274 275 279 283 282 280 279 280 282 285 286 288 290 289 287
23 23 25 26 27 26 27 29 29 31 36 40 46 48 48 47 28 345 315 297 293 285 280 286 283 277 274 275 278 280 283 283 284 285 285 283 284 285 288 290 293 293 294
9 18 19 16 16 18 18 17 16 20 24 28 32 32 25 18 3 348 328 311 301 292 281 281 281 281 279 281 281 282 284 285 286 287 286 287 288 286 288 290 293 294 295
343 2 12 7 3 4 6 8 9 9 7 8 5 357 348 342 336 330 324 316 300 289 287 285 288 290 286 280 284 288 288 285 285 285 286 286 288 289 290 291 292 293 293
318 334 350 358 354 353 352 353 354 354 350 342 335 332 329 325 319 312 309 309 303 297 292 287 288 291 292 293 289 289 291 289 287 287 288 288 287 287 289 291 291 292 291
301 314 322 330 329 329 333 336 337 337 335 331 325 319 315 315 313 313 309 303 303 298 296 296 293 292 295 295 291 289 292 289 286 287 288 288 288 289 290 290 290 291 290
287 296 306 316 319 316 318 320 322 324 325 325 323 319 316 310 308 310 310 306 304 303 300 300 300 300 299 298 297 294 292 291 289 288 289 289 289 290 290 290 291 291 292
280 286 293 302 308 309 308 309 311 312 315 317 317 317 314 306 304 305 305 301 301 301 300 298 298 301 302 302 302 300 296 295 292 291 291 291 292 292 291 290 291 291 293
279 284 289 294 298 300 302 305 307 307 308 311 312 309 307 305 302 302 302 300 299 297 297 296 296 298 299 300 300 299 298 297 295 293 291 292 293 293 292 292 292 292 293
277 281 286 289 292 293 295 298 300 301 303 304 307 306 304 302 301 300 299 298 297 295 295 296 297 298 297 296 294 295 295 295 294 293 293 293 293 294 294 294 293 293 292
273 278 281 284 287 289 291 292 293 296 298 300 302 303 303 302 301 299 298 297 298 296 295 295 296 297 296 294 294 294 295 294 293 293 293 294 294 294 294 294 293 293 293
271 276 281 282 283 286 288 289 290 291 292 294 295 296 297 298 298 295 295 294 295 295 294 294 295 296 294 294 295 293 294 294 293 293 293 293 293 293 293 293 292 292 292
271 275 278 280 280 282 285 287 288 288 289 289 290 291 293 295 295 293 293 294 294 293 294 293 294 294 293 293 293 293 292 292 293 293 293 293 292 292 293 292 292 292 291
271 274 275 277 279 281 283 285 287 286 287 288 289 290 292 293 293 291 291 292 292 292 293 294 294 294 294 293 293 293 293 293 293 293 292 293 293 292 292 293 292 292 292
271 271 274 276 279 282 283 285 286 285 286 287 289 291 291 292 292 291 291 291 291 291 292 292 291 292 294 294 294 294 294 294 293 293 292 292 292 292 291 291 291 291 291
Height
5872 5870 5868 5866 5864 5863 5862 5861 5861 5862 5863 5864 5866 5867 5869 5871 5873 5875 5877 5878 5880 5882 5883 5885 5886 5887 5889 5890 5892 5893 5895 5896 5898 5899 5900 5901 5902 5903 5904 5905 5906 5907 5907
5872 5871 5869 5867 5865 5863 5862 5862 5862 5862 5863 5864 5866 5867 5869 5871 5873 5874 5876 5878 5879 5881 5883 5884 5885 5887 5888 5889 5891 5892 5894 5895 5896 5898 5899 5900 5901 5902 5903 5903 5904 5905 5905
5873 5871 5869 5868 5866 5864 5863 5863 5863 5863 5864 5865 5866 5867 5869 5870 5872 5874 5875 5877 5879 5880 5882 5883 5884 5886 5887 5888 5890 5891 5893 5894 5895 5896 5897 5898 5899 5900 5901 5901 5902 5903 5903
5874 5872 5870 5869 5867 5866 5865 5864 5864 5864 5864 5865 5866 5867 5868 5870 5871 5873 5875 5877 5878 5880 5881 5882 5884 5885 5886 5888 5889 5890 5891 5892 5893 5894 5895 5896 5897 5898 5899 5899 5900 5900 5900
5875 5873 5872 5870 5869 5868 5867 5866 5866 5865 5865 5866 5867 5867 5868 5870 5871 5873 5874 5876 5878 5879 5881 5882 5883 5884 5886 5887 5888 5889 5890 5891 5892 5893 5894 5894 5895 5896 5897 5897 5898 5898 5898
5876 5875 5873 5872 5871 5869 5868 5868 5867 5867 5867 5867 5868 5868 5869 5870 5871 5873 5874 5876 5878 5879 5880 5881 5883 5884 5885 5886 5887 5888 5889 5889 5890 5891 5892 5892 5893 5894 5895 5895 5895 5895 5895
5877 5876 5875 5874 5873 5871 5870 5870 5869 5869 5868 5868 5869 5869 5870 5871 5872 5873 5875 5876 5878 5879 5880 5881 5882 5883 5884 5885 5886 5886 5887 5888 5889 5890 5890 5891 5891 5892 5893 5893 5893 5893 5892
5879 5877 5876 5875 5874 5873 5873 5872 5871 5871 5870 5870 5870 5870 5871 5873 5873 5874 5875 5877 5878 5879 5880 5881 5881 5882 5883 5884 5885 5885 5886 5887 5887 5888 5888 5889 5890 5890 5891 5891 5891 5891 5890
5880 5879 5878 5877 5876 5875 5874 5874 5873 5872 5872 5871 5871 5871 5872 5873 5874 5875 5876 5877 5878 5879 5880 5880 5881 5882 5882 5883 5884 5884 5885 5885 5886 5886 5886 5887 5888 5888 5889 5889 5889 5889 5888
5882 5881 5880 5879 5878 5877 5876 5875 5875 5874 5873 5872 5872 5872 5872 5873 5874 5875 5876 5877 5878 5879 5879 5880 5881 5881 5882 5882 5883 5883 5883 5884 5884 5884 5885 5885 5886 5886 5887 5887 5886 5886 5886
5883 5882 5881 5881 5880 5879 5878 5877 5876 5875 5874 5873 5873 5873 5873 5874 5875 5876 5877 5878 5878 5878 5879 5880 5880 5881 5881 5882 5882 5882 5882 5882 5883 5883 5883 5884 5884 5884 5884 5884 5884 5884 5883
5884 5884 5883 5882 5882 5881 5880 5879 5878 5877 5876 5875 5874 5874 5874 5875 5876 5877 5877 5877 5878 5878 5879 5879 5879 5880 5880 5880 5881 5881 5881 5882 5881 5882 5882 5882 5882 5882 5882 5882 5882 5881 5881
5886 5885 5884 5883 5883 5882 5881 5880 5879 5878 5877 5876 5876 5876 5876 5876 5877 5877 5877 5877 5878 5878 5878 5878 5878 5878 5879 5879 5879 5880 5880 5880 5880 5880 5880 5880 5880 5880 5880 5879 5879 5878 5877
5886 5885 5885 5884 5884 5883 5882 5881 5880 5879 5878 5878 5877 5877 5877 5877 5877 5877 5877 5877 5877 5878 5878 5878 5877 5877 5877 5877 5877 5878 5878 5878 5878 5878 5878 5878 5877 5877 5877 5876 5876 5875 5874
5886 5886 5885 5885 5884 5883 5883 5882 5881 5880 5880 5879 5878 5878 5878 5877 5877 5877 5876 5876 5877 5877 5877 5876 5876 5875 5875 5875 5875 5875 5875 5875 5875 5875 5875 5875 5874 5874 5873 5873 5872 5871 5870
5886 5886 5885 5885 5884 5884 5883 5882 5882 5881 5880 5879 5879 5878 5878 5877 5876 5876 5875 5875 5875 5875 5875 5874 5873 5873 5873 5873 5873 5872 5872 5872 5872 5872 5872 5871 5871 5870 5869 5869 5868 5867 5866
5885 5885 5885 5885 5884 5884 5883 5882 5881 5881 5880 5879 5878 5877 5877 5876 5875 5875 5874 5873 5873 5872 5872 5872 5871 5871 5870 5870 5869 5869 5869 5869 5869 5869 5868 5868 5867 5866 5865 5864 5863 5862 5861
5884 5884 5884 5884 5883 5883 5882 5881 5881 5880 5879 5878 5877 5876 5876 5875 5874 5873 5872 5871 5871 5870 5870 5869 5868 5868 5867 5866 5866 5866 5865 5865 5865 5865 5864 5864 5863 5862 5861 5860 5859 5858 5856
5883 5883 5883 5882 5882 5881 5881 5880 5879 5879 5878 5877 5876 5875 5874 5873 5872 5871 5870 5869 5868 5868 5867 5866 5865 5865 5864 5864 5863 5862 5862 5862 5861 5861 5860 5859 5858 5857 5856 5855 5853 5852 5851
5881 5881 5881 5880 5880 5880 5879 5878 5878 5877 5876 5875 5874 5873 5872 5871 5870 5869 5868 5867 5866 5865 5864 5864 5863 5862 5861 5860 5860 5859 5858 5858 5857 5856 5855 5854 5853 5852 5850 5849 5847 5846 5844
5878 5879 5878 5878 5878 5877 5877 5876 5875 5875 5874 5873 5872 5871 5870 5869 5868 5866 5865 5865 5864 5863 5861 5860 5859 5859 5858 5857 5856 5855 5854 5853 5852 5851 5850 5848 5847 5845 5844 5842 5840 5838 5836
5875 5875 5876 5875 5875 5874 5874 5873 5873 5872 5871 5870 5869 5868 5867 5866 5865 5863 5862 5861 5860 5859 5858 5857 5856 5855 5854 5852 5851 5849 5848 5847 5846 5845 5843 5842 5840 5838 5836 5834 5832 5830 5828
5871 5872 5872 5872 5871 5871 5870 5870 5869 5869 5868 5867 5866 5865 5864 5863 5861 5860 5859 5858 5856 5855 5854 5853 5851 5850 5848 5847 5845 5844 5842 5841 5839 5837 5836 5834 5832 5830 5828 5825 5823 5821 5818
5867 5867 5868 5868 5867 5867 5866 5866 5865 5865 5864 5863 5862 5861 5860 5858 5857 5856 5855 5853 5851 5850 5848 5847 5845 5844 5842 5840 5838 5837 5835 5833 5832 5829 5827 5826 5823 5821 5818 5815 5813 5810 5808
5863 5863 5863 5863 5863 5862 5862 5861 5861 5860 5859 5858 5857 5856 5855 5853 5852 5850 5849 5848 5846 5844 5842 5840 5838 5836 5834 5832 5830 5828 5826 5825 5823 5820 5817 5815 5813 5811 5808 5805 5802 5799 5797
5858 5858 5858 5858 5858 5857 5857 5856 5855 5855 5854 5853 5852 5851 5849 5848 5846 5844 5843 5841 5839 5837 5835 5833 5831 5828 5826 5823 5821 5819 5816 5814 5812 5810 5807 5804 5802 5799 5798 5795 5791 5787 5785